SL-14 R/B

Satellite information

Favourite Embed

Satellite Type and Status

ROCKET BODYIN ORBIT

Key statistics

Satellite SL-14 R/B at a glance.

Uptime

13639

Days in orbit

Revolutions

≈ 14.9

Per day

Orbit

LEO

Low Earth Orbit

Inclination

82.5

Latest

Satellite identification and parameters

Extended collection of information and parameters for SL-14 R/B.

Object identification

Identified? True

Debris? False

Object name: SL-14 R/B

International designator: 1988-001B

Object number (NORAD): 18749

Object ID (CCSDS): 18749

Country: COMMONWEALTH OF INDEPENDENT STATES (CIS)

Current information (Y/N): Y

RCS size: LARGE

Orbital parameters

Period: 96.959 minutes

Inclination: 82.5105 deg

SMA: 6991.203 km

Apoapsis: 626.155 km

Periapsis: 599.98 km

RAAN: 121.0483 deg

Eccentricy: 0.001872

Argument of periapsis: 158.1153 deg

Mean anomaly: 202.0866 deg

Mean motion: 14.85165669 rev/day

Mean motion (dot): 0.00000568 rev/day2

B* drag term: 0.000063394 1/REarth

Two-line elements (TLE)

Creation date: May 10, 2025, 2:32 a.m.

Reference frame: TEME

Reference center: EARTH

Epoch: May 9, 2025, 10 p.m. UTC

TLE line 0: 0 SL-14 R/B

TLE line 1: 1 18749U 88001B 25129.91721404 .00000568 00000-0 63394-4 0 9991

TLE line 2: 2 18749 82.5105 121.0483 0018720 158.1153 202.0866 14.85165669996923

Live tracking on map

Real-time ground track for satellite SL-14 R/B.

In-orbit conjunctions

A list of the most updated potential collisions computed for object SL-14 R/B.

Target Orbit TCA Probability of collision Miss distance Type
DELTA 1 DEB SSO 2025-01-24 08:31:45 0.0001633374 63.0 (m) DEBRIS

Associated space launch

Tselina-D satellites provided detailed observation of radio sources detected by the smaller Tselina-O satellites as part of the Tselina ELINT system.

SL-14 R/B was lifted into orbit during the mission ‘Tsiklon-3 | Tselina-D 63’, on board a Tsiklon-3 space rocket.

The launch took place on Jan. 6, 1988, 7:41 a.m. from 32/2.

For more information about the launch, click the button.

Launch to space Tsiklon-3 | Tselina-D 63
Tsiklon-3 | Tselina-D 63

Agency: N/A

Status: Launch Successful

Launch date: Jan. 6, 1988, 7:41 a.m. UTC

Rocket: Tsiklon-3

Launch pad: 32/2

Location: Plesetsk Cosmodrome, Russian Federation

...

Latest news about this satellite

There are no fresh news available about this satellite. Check back as we update our databases every day.


Newsletter sign-up

Weekly statistics, charts and insights to help you stay on top of the space industry.